DELTA 1 DEB, 7036

Orbit data source: Space-Track

DELTA 1 DEB, 7036 is space debris in SSO originally from a launch on Tue, 06 Nov 1973 UTC launched from the Air Force Western Test Range (AFWTR). Debris objects in space refer to the collection of defunct objects orbiting the Earth. Examples of debris include non-operational satellites, rocket bodies, and fragments generated from explosions, collisions, or faulty payload assembly.

Loading next visibility...
DELTA 1 DEB details
Identifier
7036, 1973-086AC
Orbit
SSO
Last TLE update10 hours ago
Origin
Flag of USGSFC (US)
ManufacturerUnknown
MissionSpacecraft
Bus & MotorUnknown
MassUnknown
Launch date (UTC)
1973-11-06 (51 years ago)
Launch vehicleUnknown
Launch site
Air Force Western Test Range (AFWTR)
Object type
Payload
Rocket body
Debris
Shape & HBRUnknown
Radar Cross SectionMedium (>0.1 m² and <1 m²)

Expand to show TLE details & history

TLE from 10 hours ago
0 DELTA 1 DEB
1 07036U 73086AC  25018.57939392  .00000946  00000-0  61013-2 0  9995
2 07036 101.5508 358.9618 0040627 139.7956 335.3099 12.54633039332575
Epoch: 2025-01-18T13:54Z
Definitive object data (Epoch: 2025-01-18T13:54:19.634Z)
Latitude62.78628°
Longitude-124.55097°
Altitude1,426.927 km
Speed7.167 km/s
True Right ascension13h 29m 01s
True Declination62° 39' 29"
Sunlit
Object was in daylight at TLE epoch
Visualization TLE readout
Latitude-13.27809°
Longitude-150.19189°
Altitude1,431.85 km
Speed7.153 km/s
Apparent Right ascension12h 10m 17s
Apparent Declination-25° 16' 59"
Sunlit
Object is in daylight
Visualization observer readout
Local Sidereal Time00:47:22
Azimuth30.722° NE
Elevation-73.438°
Doppler factor1
Orbital elements
Apogee altitude1,474.479 km
Perigee altitude1,410.931 km
Semi-major axis7,820.842 km
Eccentricity0.0040627
Inclination101.5508°
RAAN358.9618°
Arg. of periapsis139.7956°
True anomaly335.11453°
Mean anomaly335.3099°
Eccentric anomaly335.21231°
Mean motion3.13807 °/min
BSTAR0.0061013
Orbital period114.72 mins
Loading maneuver chart data...
Loading historical data...
Loading historical data...
Loading historical data...
Loading historical data...
Loading historical data...
Loading historical data...
Loading historical data...

DELTA 1 DEB Visibility forecast

Observer location: undefined°, undefined

Span
Click to sort rows by Start time (UTC) header in descending order
Start Az.
Max El. time (UTC)
Max El. Az.
Max El.
End time (UTC)
End Az.
15 mins2025-01-19 10:58:17.597Z26.928° NE2025-01-19 11:05:17.597Z93.429° ESE39.263°2025-01-19 11:13:17.597Z178.793° S
12 mins2025-01-19 12:52:17.597Z354.993° N2025-01-19 12:58:17.597Z296.33° NW28.853°2025-01-19 13:04:17.597Z243.68° WSW
7 mins2025-01-19 20:09:17.597Z70.047° E2025-01-19 20:12:17.597Z46.079° ENE15.174°2025-01-19 20:16:17.597Z16.186° NNE
15 mins2025-01-19 21:56:17.597Z147.986° SSE2025-01-19 22:03:17.597Z66.485° ENE43.208°2025-01-19 22:11:17.597Z347.645° N
|